• In France
  • List of Countries
  • For 7 days
  • Water Temperature
  • Satellite Maps
  • Weather Map
  • Weather Widgets
  • user-avatar
    Login

    Hourly Weather Saurimo

    Today, 15 November, Thursday

    Time Temperature Precipitation Wind Pressure Humidity
    00:00 +21°C° 0 mm 1 mps 669 mmHg 87%
    01:00 +19°C° 0 mm 2 mps 668 mmHg 90%
    02:00 +19°C° 0 mm 2 mps 668 mmHg 92%
    03:00 +18°C° 0 mm 2 mps 668 mmHg 94%
    04:00 +19°C° 0 mm 1 mps 668 mmHg 96%
    05:00 +21°C° 0 mm 1 mps 669 mmHg 90%
    06:00 +21°C° 0 mm 2 mps 670 mmHg 83%
    07:00 +23°C° 0 mm 2 mps 670 mmHg 77%
    08:00 +27°C° 0 mm 2 mps 671 mmHg 64%
    09:00 +30°C° 0 mm 1 mps 671 mmHg 51%
    10:00 +33°C° 0 mm 1 mps 672 mmHg 39%
    11:00 +35°C° 0 mm 1 mps 671 mmHg 33%
    12:00 +36°C° 0 mm 1 mps 671 mmHg 28%
    13:00 +39°C° 0 mm 1 mps 671 mmHg 22%
    14:00 +36°C° 0 mm 1 mps 670 mmHg 25%
    15:00 +35°C° 0 mm 1 mps 669 mmHg 28%
    16:00 +33°C° 0 mm 1 mps 668 mmHg 30%
    17:00 +31°C° 0 mm 1 mps 668 mmHg 34%
    18:00 +28°C° 0 mm 1 mps 668 mmHg 38%
    19:00 +26°C° 0 mm 1 mps 668 mmHg 42%
    20:00 +25°C° 0 mm 1 mps 668 mmHg 47%
    21:00 +24°C° 0 mm 1 mps 669 mmHg 51%
    22:00 +23°C° 0 mm 1 mps 669 mmHg 56%
    23:00 +23°C° 0 mm 1 mps 669 mmHg 60%

    Tomorrow, 16 November, Friday

    Time Temperature Precipitation Wind Pressure Humidity
    00:00 +22°C° 0 mm 1 mps 669 mmHg 65%
    01:00 +21°C° 0 mm 2 mps 668 mmHg 70%
    02:00 +20°C° 0 mm 2 mps 668 mmHg 74%
    03:00 +20°C° 0 mm 2 mps 669 mmHg 77%
    04:00 +19°C° 0 mm 2 mps 669 mmHg 81%
    05:00 +20°C° 0 mm 2 mps 670 mmHg 80%
    06:00 +21°C° 0 mm 3 mps 670 mmHg 78%
    07:00 +22°C° 0 mm 3 mps 671 mmHg 77%
    08:00 +24°C° 0.1 mm 3 mps 671 mmHg 76%
    09:00 +24°C° 0.1 mm 3 mps 672 mmHg 76%
    10:00 +25°C° 0.1 mm 3 mps 672 mmHg 75%
    11:00 +27°C° 0.1 mm 3 mps 672 mmHg 67%
    12:00 +29°C° 0.1 mm 2 mps 672 mmHg 58%
    13:00 +31°C° 0.1 mm 2 mps 671 mmHg 50%
    14:00 +30°C° 0.5 mm 2 mps 671 mmHg 57%
    15:00 +29°C° 0.5 mm 2 mps 670 mmHg 64%
    16:00 +27°C° 0.5 mm 2 mps 670 mmHg 70%
    17:00 +26°C° 0.1 mm 2 mps 670 mmHg 77%
    18:00 +24°C° 0.1 mm 2 mps 670 mmHg 85%
    19:00 +21°C° 0.1 mm 2 mps 671 mmHg 92%
    20:00 +21°C° 0 mm 2 mps 671 mmHg 93%
    21:00 +21°C° 0 mm 1 mps 671 mmHg 95%
    22:00 +21°C° 0 mm 1 mps 671 mmHg 96%
    23:00 +21°C° 0 mm 1 mps 671 mmHg 96%

    Day after tomorrow, 17 November, Saturday

    Time Temperature Precipitation Wind Pressure Humidity
    00:00 +21°C° 0 mm 1 mps 671 mmHg 97%
    01:00 +20°C° 0 mm 1 mps 670 mmHg 97%
    02:00 +20°C° 0 mm 1 mps 670 mmHg 97%
    03:00 +20°C° 0 mm 1 mps 670 mmHg 97%
    04:00 +17°C° 0 mm 0 mps 670 mmHg 97%
    05:00 +20°C° 0 mm 1 mps 670 mmHg 93%
    06:00 +21°C° 0 mm 1 mps 671 mmHg 89%
    07:00 +23°C° 0 mm 1 mps 672 mmHg 84%
    08:00 +26°C° 0 mm 1 mps 672 mmHg 70%
    09:00 +29°C° 0 mm 1 mps 673 mmHg 55%
    10:00 +33°C° 0 mm 1 mps 674 mmHg 41%
    11:00 +33°C° 0 mm 1 mps 673 mmHg 39%
    12:00 +35°C° 0 mm 2 mps 672 mmHg 36%
    13:00 +35°C° 0 mm 2 mps 671 mmHg 34%
    14:00 +33°C° 0 mm 1 mps 671 mmHg 39%
    15:00 +32°C° 0 mm 1 mps 670 mmHg 43%
    16:00 +30°C° 0 mm 1 mps 669 mmHg 47%
    17:00 +29°C° 0.1 mm 1 mps 669 mmHg 53%
    18:00 +27°C° 0.1 mm 1 mps 670 mmHg 58%
    19:00 +25°C° 0.1 mm 1 mps 670 mmHg 64%
    20:00 +24°C° 1.4 mm 1 mps 670 mmHg 73%
    21:00 +23°C° 1.4 mm 1 mps 671 mmHg 82%
    22:00 +21°C° 1.4 mm 1 mps 671 mmHg 91%
    23:00 +21°C° 1.8 mm 1 mps 671 mmHg 92%

    18 November, Sunday

    Time Temperature Precipitation Wind Pressure Humidity
    00:00 +21°C° 1.8 mm 1 mps 670 mmHg 93%
    01:00 +21°C° 1.8 mm 1 mps 670 mmHg 95%
    02:00 +21°C° 1.2 mm 1 mps 670 mmHg 94%
    03:00 +21°C° 1.2 mm 1 mps 670 mmHg 94%
    04:00 +21°C° 1.2 mm 1 mps 669 mmHg 94%
    05:00 +21°C° 0.2 mm 1 mps 670 mmHg 91%
    06:00 +22°C° 0.2 mm 1 mps 671 mmHg 89%
    07:00 +20°C° 0.2 mm 0 mps 671 mmHg 87%
    08:00 +25°C° 0 mm 1 mps 672 mmHg 75%
    09:00 +28°C° 0 mm 1 mps 672 mmHg 62%
    10:00 +31°C° 0 mm 1 mps 672 mmHg 50%
    11:00 +31°C° 0 mm 1 mps 672 mmHg 46%
    12:00 +32°C° 0 mm 1 mps 671 mmHg 43%
    13:00 +33°C° 0 mm 1 mps 670 mmHg 40%
    14:00 +33°C° 0 mm 1 mps 670 mmHg 42%
    15:00 +32°C° 0 mm 1 mps 669 mmHg 45%
    16:00 +31°C° 0 mm 1 mps 669 mmHg 48%
    17:00 +29°C° 0 mm 1 mps 669 mmHg 53%
    18:00 +27°C° 0 mm 1 mps 669 mmHg 59%
    19:00 +25°C° 0 mm 1 mps 669 mmHg 64%
    20:00 +24°C° 0.2 mm 1 mps 670 mmHg 71%
    21:00 +23°C° 0.2 mm 1 mps 670 mmHg 77%
    22:00 +22°C° 0.2 mm 1 mps 670 mmHg 83%
    23:00 +21°C° 1 mm 1 mps 670 mmHg 87%

    19 November, Monday

    Time Temperature Precipitation Wind Pressure Humidity
    00:00 +21°C° 1 mm 1 mps 669 mmHg 91%
    01:00 +20°C° 1 mm 1 mps 669 mmHg 96%
    02:00 +20°C° 0.3 mm 1 mps 669 mmHg 96%
    03:00 +20°C° 0.3 mm 1 mps 669 mmHg 97%
    04:00 +20°C° 0.3 mm 1 mps 669 mmHg 97%
    05:00 +21°C° 0 mm 1 mps 670 mmHg 94%
    06:00 +22°C° 0 mm 1 mps 670 mmHg 92%
    07:00 +23°C° 0 mm 1 mps 671 mmHg 89%
    08:00 +26°C° 0.2 mm 1 mps 671 mmHg 76%
    09:00 +29°C° 0.2 mm 1 mps 672 mmHg 63%
    10:00 +32°C° 0.2 mm 1 mps 672 mmHg 50%
    11:00 +32°C° 0 mm 1 mps 671 mmHg 49%
    12:00 +31°C° 0 mm 2 mps 670 mmHg 47%
    13:00 +31°C° 0 mm 2 mps 669 mmHg 46%
    14:00 +31°C° 0 mm 2 mps 669 mmHg 46%
    15:00 +31°C° 0 mm 2 mps 669 mmHg 46%
    16:00 +31°C° 0 mm 2 mps 669 mmHg 45%
    17:00 +29°C° 0.4 mm 2 mps 669 mmHg 54%
    18:00 +26°C° 0.4 mm 1 mps 669 mmHg 63%
    19:00 +24°C° 0.4 mm 1 mps 669 mmHg 72%
    20:00 +23°C° 0.2 mm 1 mps 669 mmHg 75%
    21:00 +23°C° 0.2 mm 1 mps 669 mmHg 78%
    22:00 +22°C° 0.2 mm 1 mps 669 mmHg 81%
    23:00 +21°C° 0 mm 1 mps 669 mmHg 85%

    20 November, Tuesday

    Time Temperature Precipitation Wind Pressure Humidity
    00:00 +21°C° 0 mm 1 mps 668 mmHg 89%
    01:00 +20°C° 0 mm 1 mps 668 mmHg 93%
    02:00 +20°C° 0.1 mm 1 mps 668 mmHg 94%
    03:00 +20°C° 0.1 mm 1 mps 668 mmHg 95%
    04:00 +20°C° 0.1 mm 1 mps 668 mmHg 95%
    05:00 +21°C° 0.5 mm 1 mps 669 mmHg 92%
    06:00 +22°C° 0.5 mm 1 mps 670 mmHg 89%
    07:00 +23°C° 0.5 mm 1 mps 671 mmHg 85%
    08:00 +25°C° 0.7 mm 1 mps 671 mmHg 79%
    09:00 +27°C° 0.7 mm 1 mps 671 mmHg 72%
    10:00 +29°C° 0.7 mm 2 mps 671 mmHg 65%
    11:00 +30°C° 0.6 mm 2 mps 671 mmHg 58%
    12:00 +32°C° 0.6 mm 2 mps 671 mmHg 51%
    13:00 +34°C° 0.6 mm 2 mps 670 mmHg 44%
    14:00 +31°C° 0.3 mm 2 mps 670 mmHg 51%
    15:00 +29°C° 0.3 mm 2 mps 669 mmHg 58%
    16:00 +28°C° 0.3 mm 2 mps 669 mmHg 65%
    17:00 +26°C° 1.9 mm 2 mps 669 mmHg 73%
    18:00 +24°C° 1.9 mm 2 mps 669 mmHg 80%
    19:00 +23°C° 1.9 mm 2 mps 670 mmHg 87%
    20:00 +21°C° 0 mm 2 mps 669 mmHg 89%
    21:00 +22°C° 0 mm 1 mps 669 mmHg 91%
    22:00 +21°C° 0 mm 1 mps 669 mmHg 92%
    23:00 +21°C° 0.1 mm 1 mps 669 mmHg 92%
    Show more